GSAT-31

Last updated on Nov. 16, 2019, 4:19 a.m. UTC

1 44035U 19007B   19318.93127660 -.00000152  00000-0  00000-0 0  9998
2 44035   0.0647 112.7608 0005910 141.4019 217.8745  1.00270915  2859
UTC
Height (km)
Latitude
Longitude
Inclination
Orbital Period
UTC large
Height (km)
Speed (km/s)
/
Latitude / Longitude
Inclination (degrees)
Orbital Period (minutes)
Azimuth
Elevation
Range (km)
Doppler Factor
iOS Compass Heading
iOS Angle

Next 30 passes for location: Hong Kong

Rise time Rise Azimuth (degrees) Set time Set Azimuth (degrees) Duration Max altitude (degrees)

No matching passes for this satellites